Weather History for LEPA - June, 2012

Change the Weather History Date:

Saturday, June 2, 2012

  Actual Average Record
Temperature  
Mean Temperature 72 °F -  
Max Temperature 84 °F 81 °F 87 °F (2002)
Min Temperature 59 °F 60 °F 49 °F (2013)
Cooling Degree Days 6    
Growing Degree Days 22 (Base 50)    
Moisture  
Dew Point 57 °F    
Average Humidity 59    
Maximum Humidity 82    
Minimum Humidity 22    
Precipitation  
Precipitation 0.00 in 0.02 in - ()
Sea Level Pressure  
Sea Level Pressure 29.97 in    
Wind  
Wind Speed 3 mph ()    
Max Wind Speed 16 mph    
Max Gust Speed -    
Visibility 17.3 miles    
Events      
Averages and records for this station are not official NWS values.
T = Trace of Precipitation, MM = Missing Value Source: Averaged Metar Reports

Daily Weather History Graph

Daily Weather History Graph

Search for Another Location

Airport or City:

Trip Planner

Search our weather history database for the weather conditions in past years. The results will help you decide how hot, cold, wet, or windy it might be!

Date:

Astronomy

Jun. 02, 2012 Rise Set
Actual Time 6:23 AM CEST 9:11 PM CEST
Civil Twilight 5:51 AM CEST 9:43 PM CEST
Nautical Twilight 5:11 AM CEST 10:23 PM CEST
Astronomical Twilight 4:25 AM CEST 11:09 PM CEST
Moon 7:08 PM CEST (6/2) 4:29 AM CEST (6/2)
Length of Visible Light 15h 52m
Length of Day
14h 48m
Waxing Gibbous, 94% of the Moon is Illuminated
Jun 2
Waxing Gibbous
Jun 4
Full
Jun 11
Last Quarter
Jun 19
New
Jun 27
First Quarter

Hourly Weather History & Observations

Time (CEST) Temp. Heat Index Dew Point Humidity Pressure Visibility Wind Dir Wind Speed Gust Speed Precip Events Conditions
12:00 AM 66.2 °F - 57.2 °F 73% 30.01 in - NE 1.2 mph - N/A   Clear
12:30 AM 66.2 °F - 57.2 °F 73% 30.01 in - ENE 1.2 mph - N/A   Clear
1:00 AM 64.4 °F - 57.2 °F 77% 29.98 in - Calm Calm - N/A   Clear
1:30 AM 64.4 °F - 57.2 °F 77% 29.98 in - NE 1.2 mph - N/A   Clear
2:00 AM 63 °F - 53 °F 63% 29.99 in 12 mi NNE 2.3 mph - -  
2:00 AM 64.4 °F - 55.4 °F 73% 29.98 in - Variable 1.2 mph - N/A   Clear
2:30 AM 66.2 °F - 55.4 °F 68% 29.98 in - Calm Calm - N/A   Clear
3:00 AM 62.6 °F - 55.4 °F 77% 29.98 in - Calm Calm - N/A   Clear
3:30 AM 62.6 °F - 55.4 °F 77% 29.98 in - Calm Calm - N/A   Clear
4:00 AM 60.8 °F - 55.4 °F 82% 29.98 in - Calm Calm - N/A   Clear
4:30 AM 60.8 °F - 55.4 °F 82% 29.98 in - Calm Calm - N/A   Clear
5:00 AM 60.8 °F - 55.4 °F 82% 29.98 in - NE 1.2 mph - N/A   Clear
5:30 AM 60.8 °F - 55.4 °F 82% 29.95 in - Calm Calm - N/A   Clear
6:00 AM 60.8 °F - 55.4 °F 82% 29.95 in - Variable 1.2 mph - N/A   Clear
6:30 AM 60.8 °F - 55.4 °F 82% 29.95 in - NE 2.3 mph - N/A   Clear
7:00 AM 60.8 °F - 55.4 °F 82% 29.98 in - Variable 1.2 mph - N/A   Clear
7:30 AM 62.6 °F - 55.4 °F 77% 29.98 in - Calm Calm - N/A   Clear
8:00 AM 67 °F - 56 °F 58% 29.98 in 19 mi 4.6 mph - -   Clear
8:00 AM 66.2 °F - 57.2 °F 73% 29.98 in - Variable 2.3 mph - N/A   Clear
8:30 AM 69.8 °F - 57.2 °F 64% 29.98 in - Calm Calm - N/A   Clear
9:00 AM 73.4 °F - 55.4 °F 53% 29.98 in - Calm Calm - N/A   Clear
9:30 AM 77.0 °F - 53.6 °F 44% 29.98 in - Variable 1.2 mph - N/A   Clear
10:00 AM 80.6 °F 80.5 °F 55.4 °F 42% 29.98 in - Calm Calm - N/A   Clear
10:30 AM 80.6 °F 80.5 °F 55.4 °F 42% 29.98 in - Calm Calm - N/A   Clear
11:00 AM 80.6 °F 80.5 °F 55.4 °F 42% 29.98 in - WSW 6.9 mph - N/A   Clear
11:30 AM 80.6 °F 80.5 °F 55.4 °F 42% 29.98 in - WSW 6.9 mph - N/A   Clear
12:00 PM 84.2 °F 83.0 °F 55.4 °F 37% 29.98 in - WSW 5.8 mph - N/A   Clear
12:30 PM 82.4 °F 82.0 °F 57.2 °F 42% 29.98 in - WSW 9.2 mph - N/A   Clear
1:30 PM 80.6 °F 81.1 °F 59.0 °F 48% 29.98 in - WSW 12.7 mph - N/A   Clear
2:00 PM 82 °F - 58 °F 34% 29.99 in 19 mi SW 16.1 mph - -   Clear
2:00 PM 80.6 °F 81.8 °F 62.6 °F 54% 29.98 in - WSW 15.0 mph - N/A   Clear
2:30 PM 80.6 °F 81.5 °F 60.8 °F 51% 29.98 in - SW 15.0 mph - N/A   Clear
3:00 PM 80.6 °F 81.5 °F 60.8 °F 51% 29.98 in - WSW 15.0 mph - N/A   Clear
3:30 PM 82.4 °F 82.0 °F 57.2 °F 42% 29.95 in - WSW 15.0 mph - N/A   Clear
4:00 PM 84.2 °F 83.5 °F 57.2 °F 40% 29.95 in - SW 13.8 mph - N/A   Clear
4:30 PM 84.2 °F 83.5 °F 57.2 °F 40% 29.95 in - WSW 12.7 mph - N/A   Clear
5:00 PM 82.4 °F 82.0 °F 57.2 °F 42% 29.95 in - WSW 15.0 mph - N/A   Clear
5:30 PM 82.4 °F 82.0 °F 57.2 °F 42% 29.92 in - SW 15.0 mph - N/A   Clear
6:00 PM 80.6 °F 81.8 °F 62.6 °F 54% 29.92 in - WSW 12.7 mph - N/A   Clear
6:30 PM 80.6 °F 82.3 °F 64.4 °F 58% 29.92 in - SW 12.7 mph - N/A   Clear
7:00 PM 80.6 °F 81.8 °F 62.6 °F 54% 29.92 in - WSW 9.2 mph - N/A   Clear
7:30 PM 82.4 °F 81.4 °F 53.6 °F 37% 29.92 in - WSW 6.9 mph - N/A   Clear
8:00 PM 82 °F - 50 °F 22% 29.94 in 19 mi WSW 6.9 mph - -   Clear
8:00 PM 80.6 °F 80.3 °F 53.6 °F 39% 29.92 in - WSW 4.6 mph - N/A   Clear
8:30 PM 78.8 °F - 59.0 °F 51% 29.92 in - WSW 3.5 mph - N/A   Clear
9:00 PM 75.2 °F - 62.6 °F 65% 29.95 in - Variable 1.2 mph - N/A   Clear
9:30 PM 73.4 °F - 64.4 °F 73% 29.92 in - Variable 2.3 mph - N/A   Clear
10:00 PM 73.4 °F - 62.6 °F 69% 29.95 in - Variable 1.2 mph - N/A   Clear
10:30 PM 71.6 °F - 60.8 °F 69% 29.95 in - Calm Calm - N/A   Clear
11:00 PM 73.4 °F - 59.0 °F 61% 29.98 in - Variable 1.2 mph - N/A   Clear
11:30 PM 69.8 °F - 57.2 °F 64% 29.98 in - Calm Calm - N/A   Clear